"2010-02-01 00:00:00",1641879,2.853,120.9,6.468,1.147,1.825,99.86191,-1.052,0.199,58.98,0,109.6,13.58,-0.30,82.9
"2010-02-01 00:00:30",1641880,3.194,114.6,6.117,1.209,2.179,99.83899,-1.11,0.218,59.08,0,109.6,13.58,-0.36,76.6
"2010-02-01 00:01:00",1641881,2.829,101.5,6.008,1.197,2.182,99.83022,-1.132,0.206,59.18,0,109.6,13.58,-0.38,63.5
"2010-02-01 00:01:30",1641882,2.321,94,7.214,1.261,2.427,99.83022,-1.132,0.138,59.12,0,109.6,13.58,-0.38,56.0
"2010-02-01 00:02:00",1641883,1.591,91.8,4.927,0.972,0.039,99.83022,-1.132,-0.006,59.06,0,109.6,13.57,-0.38,53.8
"2010-02-01 00:02:30",1641884,2.323,90.8,6.93,1.219,1.945,99.82229,-1.153,0.129,59.26,0,109.6,13.57,-0.40,52.8
"2010-02-01 00:03:00",1641885,2.384,93.2,7.951,1.229,1.69,99.80984,-1.184,0.208,59.39,0,109.6,13.58,-0.44,55.2
"2010-02-01 00:03:30",1641886,2.254,88.8,6.317,1.213,1.106,99.79711,-1.217,0.032,59.24,0,109.6,13.58,-0.47,50.8
"2010-02-01 00:04:00",1641887,2.859,93.8,6.693,1.167,2.152,99.79626,-1.219,0.13,59.36,0,109.6,13.58,-0.47,55.8
"2010-02-01 00:04:30",1641888,2.732,85.9,6.236,1.162,2.728,99.79569,-1.22,0.128,59.4,0,109.6,13.58,-0.47,47.9
"2010-02-01 00:05:00",1641889,1.196,85,6.574,0.055,-0.684,99.77985,-1.261,-0.128,59.2,0,109.6,13.61,-0.51,47.0
"2010-02-01 00:05:30",1641890,1.793,92.4,4.055,1.014,0.68,99.76569,-1.297,-0.046,59.34,0,109.6,13.58,-0.55,54.4
"2010-02-01 00:06:00",1641891,2.783,101.1,7.968,1.222,2.548,99.77162,-1.282,0.099,59.52,0,109.6,13.58,-0.53,63.1
"2010-02-01 00:06:30",1641892,2.255,103.1,6.559,1.256,0.96,99.77614,-1.27,-0.02,59.51,0,109.6,13.59,-0.52,65.1
"2010-02-01 00:07:00",1641893,2.362,103.2,7.95,1.266,1.117,99.76849,-1.29,-0.022,59.58,0,109.6,13.59,-0.54,65.2
"2010-02-01 00:07:30",1641894,2.725,102.4,7.027,1.235,1.589,99.75206,-1.332,0.007,59.72,0,109.6,13.6,-0.58,64.4
"2010-02-01 00:08:00",1641895,2.772,95.1,6.234,1.159,2.156,99.75431,-1.326,-0.115,59.63,0,109.6,13.6,-0.58,57.1
"2010-02-01 00:08:30",1641896,1.655,92.7,1.157,0.082,-0.468,99.74978,-1.337,-0.23,59.6,0,109.6,13.63,-0.59,54.7
"2010-02-01 00:09:00",1641897,2.816,97.6,6.808,1.216,2.118,99.72488,-1.401,-0.024,59.92,0,109.6,13.6,-0.65,59.6
"2010-02-01 00:09:30",1641898,2.662,96.2,6.664,1.196,1.812,99.72769,-1.394,-0.117,59.9,0,109.6,13.6,-0.65,58.2
"2010-02-01 00:10:00",1641899,1.628,95,4.596,0.711,-0.386,99.7209,-1.411,-0.126,59.98,0,109.5,13.6,-0.66,57.0
"2010-02-01 00:10:30",1641900,2.956,106.2,5.74,1.125,2.253,99.6957,-1.475,-0.113,60.04,0,109.6,13.6,-0.73,68.2
"2010-02-01 00:11:00",1641901,2.573,96.1,6.819,1.212,2.36,99.69429,-1.479,-0.157,60.09,0,109.6,13.6,-0.73,58.1
"2010-02-01 00:11:30",1641902,1.181,87.5,3.04,0.046,-0.518,99.68494,-1.503,-0.397,59.94,0,109.6,13.63,-0.76,49.5
"2010-02-01 00:12:00",1641903,2.236,103.9,7.664,1.2,1.421,99.66174,-1.562,-0.273,60.15,0,109.6,13.6,-0.82,65.9
"2010-02-01 00:12:30",1641904,2.288,117.9,9.21,1.25,1.688,99.66032,-1.565,-0.247,60.29,0,109.6,13.61,-0.82,79.9
"2010-02-01 00:13:00",1641905,2.098,121.1,7.225,1.116,0.57,99.64561,-1.603,-0.407,60.27,0,109.6,13.61,-0.86,83.1
"2010-02-01 00:13:30",1641906,2.247,120.1,7.584,1.205,0.683,99.62635,-1.652,-0.297,60.52,0,109.6,13.61,-0.91,82.1
"2010-02-01 00:14:00",1641907,2.756,124.9,5.889,1.149,1.867,99.62635,-1.652,-0.331,60.65,0,109.6,13.61,-0.91,86.9
"2010-02-01 00:14:30",1641908,1.758,122.3,4.655,1.058,0.133,99.60456,-1.708,-0.408,60.78,0,109.5,13.61,-0.96,84.3
"2010-02-01 00:15:00",1641909,2.347,126.3,6.673,1.195,0.697,99.59239,-1.739,-0.452,60.95,0,109.5,13.61,-0.99,88.3
"2010-02-01 00:15:30",1641910,1.714,124.8,5.819,1.01,0.055,99.58814,-1.749,-0.437,61.24,0,109.5,13.61,-1.00,86.8
"2010-02-01 00:16:00",1641911,1.922,129.8,3.763,1.072,0.088,99.56522,-1.808,-0.512,61.38,0,109.5,13.61,-1.06,91.8
"2010-02-01 00:16:30",1641912,2.773,138.8,6.143,1.178,2.33,99.55843,-1.825,-0.418,61.6,0,109.5,13.61,-1.08,100.8
"2010-02-01 00:17:00",1641913,2.807,138.3,4.966,1.112,2.154,99.54342,-1.863,-0.423,61.78,0,109.5,13.61,-1.12,100.3
"2010-02-01 00:17:30",1641914,2.346,130.4,7.339,1.238,1.525,99.52474,-1.911,-0.536,61.83,0,109.5,13.61,-1.17,92.4
"2010-02-01 00:18:00",1641915,0.823,120.3,3.346,0.046,-1.081,99.52473,-1.911,-0.728,61.85,0,109.5,13.64,-1.17,82.3
"2010-02-01 00:18:30",1641916,1.842,118.8,3.653,1.224,1.17,99.50803,-1.954,-0.613,62.15,0,109.5,13.61,-1.21,80.8
"2010-02-01 00:19:00",1641917,1.514,117.7,5.047,1.126,0.23,99.49781,-1.98,-0.698,62.23,0,109.5,13.61,-1.23,79.7
"2010-02-01 00:19:30",1641918,1.103,113.8,6.068,0.837,-0.237,99.49496,-1.987,-0.709,62.4,0,109.5,13.61,-1.24,75.8
"2010-02-01 00:20:00",1641919,2.298,117.9,5.766,1.16,1.907,99.47485,-2.038,-0.676,62.6,0,109.4,13.61,-1.29,79.9
"2010-02-01 00:20:30",1641920,2.501,114.4,7.068,1.056,2.154,99.47538,-2.037,-0.65,62.75,0,109.5,13.62,-1.29,76.4
"2010-02-01 00:21:00",1641921,1.609,105.8,6.638,1.229,1.523,99.47282,-2.043,-0.72,62.81,0,109.5,13.62,-1.30,67.8
"2010-02-01 00:21:30",1641922,0.555,98.3,1.441,0.032,-0.566,99.44987,-2.102,-0.918,62.74,0,109.5,13.65,-1.36,60.3
"2010-02-01 00:22:00",1641923,1.729,104.2,5.659,1.201,1.511,99.44788,-2.107,-0.784,62.99,0,109.5,13.62,-1.36,66.2
"2010-02-01 00:22:30",1641924,0.48,101.5,2.103,0.036,-0.984,99.44363,-2.118,-0.957,62.94,0,109.5,13.62,-1.37,63.5
"2010-02-01 00:23:00",1641925,1.37,110.9,6.41,1.148,0.578,99.4255,-2.164,-0.899,63.11,0,109.5,13.63,-1.42,72.9
"2010-02-01 00:23:30",1641926,1.298,118.7,7.766,1.127,0.488,99.42123,-2.175,-0.829,63.31,0,109.5,13.64,-1.43,80.7
"2010-02-01 00:24:00",1641927,2.205,121.2,5.99,1.105,1.45,99.42009,-2.178,-0.831,63.48,0,109.5,13.64,-1.43,83.2
"2010-02-01 00:24:30",1641928,2.218,123.9,6.395,1.158,1.962,99.40225,-2.223,-0.828,63.57,0,109.5,13.64,-1.48,85.9
"2010-02-01 00:25:00",1641929,0.69,121.2,1.251,0.036,-1.329,99.38894,-2.257,-1.076,63.47,0,109.5,13.67,-1.51,83.2
"2010-02-01 00:25:30",1641930,1.888,127.1,5.822,1.242,0.814,99.38696,-2.262,-0.971,63.75,0,109.5,13.64,-1.52,89.1
"2010-02-01 00:26:00",1641931,1.111,129.1,5.434,0.852,-0.381,99.36346,-2.322,-0.972,63.85,0,109.5,13.64,-1.58,91.1
"2010-02-01 00:26:30",1641932,1.671,133.9,6.277,1.163,0.214,99.35439,-2.345,-1.084,63.86,0,109.5,13.64,-1.60,95.9
"2010-02-01 00:27:00",1641933,1.494,131.3,5.569,1.131,0.348,99.35326,-2.348,-1.062,64.07,0,109.5,13.64,-1.60,93.3
"2010-02-01 00:27:30",1641934,2.179,141.2,6.809,1.18,1.786,99.33713,-2.389,-0.945,64.4,0,109.5,13.64,-1.65,103.2
"2010-02-01 00:28:00",1641935,2.304,143.7,6.969,1.157,1.623,99.32127,-2.429,-1.055,64.63,0,109.5,13.64,-1.69,105.7
"2010-02-01 00:28:30",1641936,0.681,138.6,3.539,0.059,-1.669,99.32042,-2.432,-1.264,64.59,0,109.5,13.67,-1.69,100.6
"2010-02-01 00:29:00",1641937,1.891,145.7,9.54,1.256,0.094,99.31079,-2.456,-1.255,64.68,0,109.5,13.64,-1.71,107.7
"2010-02-01 00:29:30",1641938,1.285,151.1,5.29,0.937,-0.193,99.29153,-2.505,-1.168,64.89,0,109.5,13.65,-1.76,113.1
"2010-02-01 00:30:00",1641939,2.573,157.9,6.082,1.116,1.508,99.28672,-2.517,-1.239,64.92,0,109.5,13.65,-1.77,119.9
"2010-02-01 00:30:30",1641940,1.625,148.9,6.237,1.147,0.477,99.28672,-2.517,-1.213,65.12,0,109.5,13.65,-1.77,110.9
"2010-02-01 00:31:00",1641941,2.766,152.8,5.08,1.07,2.485,99.28018,-2.534,-1.132,65.34,0,109.5,13.65,-1.79,114.8
"2010-02-01 00:31:30",1641942,2.347,154.3,6.681,1.203,1.475,99.2626,-2.579,-1.185,65.43,0,109.5,13.65,-1.84,116.3
"2010-02-01 00:32:00",1641943,0.799,147.9,2.57,0.035,-1.035,99.26315,-2.578,-1.356,65.39,0,109.5,13.68,-1.83,109.9
"2010-02-01 00:32:30",1641944,1.007,154.3,6.823,0.641,-0.652,99.26395,-2.575,-1.321,65.56,0,109.5,13.65,-1.83,116.3
"2010-02-01 00:33:00",1641945,2.21,161.4,9.96,1.248,1.182,99.24353,-2.628,-1.368,65.61,0,109.5,13.65,-1.88,123.4
"2010-02-01 00:33:30",1641946,1.48,170.1,4.871,1.19,1.175,99.24236,-2.631,-1.246,65.82,0,109.5,13.65,-1.89,132.1
"2010-02-01 00:34:00",1641947,1.387,169.7,5.841,1.129,0.378,99.24349,-2.628,-1.382,65.75,0,109.5,13.65,-1.88,131.7
"2010-02-01 00:34:30",1641948,2.15,173.8,6.15,1.154,2.316,99.23866,-2.64,-1.283,65.94,0,109.5,13.65,-1.90,135.8
"2010-02-01 00:35:00",1641949,1.968,173.8,6.463,1.064,1.858,99.21799,-2.693,-1.382,65.91,0,109.4,13.65,-1.95,135.8
"2010-02-01 00:35:30",1641950,0.16,173.2,4.52,0.432,-1.26,99.21315,-2.705,-1.551,65.81,0,109.4,13.65,-1.96,135.2
"2010-02-01 00:36:00",1641951,-0.003,189.3,6.009,0.029,-1.809,99.21653,-2.696,-1.576,65.95,0,109.4,13.68,-1.95,151.3
"2010-02-01 00:36:30",1641952,-0.012,205.4,5.207,0.005,-2.132,99.21228,-2.707,-1.59,66,0,109.4,13.68,-1.96,167.4
"2010-02-01 00:37:00",1641953,-0.051,216.7,2.264,0.037,-1.834,99.20009,-2.738,-1.624,66.01,0,109.5,13.69,-2.00,178.7
"2010-02-01 00:37:30",1641954,0.987,217.8,8.61,1.231,0.523,99.18762,-2.77,-1.395,66.19,0,109.4,13.65,-2.03,179.8
"2010-02-01 00:38:00",1641955,0.894,186,12.19,1.211,-0.004,99.18422,-2.779,-1.435,66.07,0,109.4,13.66,-2.04,148.0
"2010-02-01 00:38:30",1641956,0.622,160.7,10.66,0.987,-1.929,99.18422,-2.779,-1.671,65.82,0,109.4,13.66,-2.04,122.7
"2010-02-01 00:39:00",1641957,0.34,151,4.469,0.45,-2.553,99.16723,-2.822,-1.67,65.8,0,109.5,13.67,-2.08,113.0
"2010-02-01 00:39:30",1641958,1.923,160.6,7.11,1.196,0.561,99.15052,-2.865,-1.482,66.09,0,109.4,13.67,-2.12,122.6
"2010-02-01 00:40:00",1641959,1.46,160.3,6.228,1.079,-0.049,99.15024,-2.865,-1.552,66.12,0,109.4,13.67,-2.12,122.3
"2010-02-01 00:40:30",1641960,1.703,166.9,5.582,1.197,0.683,99.14938,-2.867,-1.607,66.18,0,109.4,13.67,-2.13,128.9
"2010-02-01 00:41:00",1641961,1.377,170.6,5.651,1.028,0.077,99.12304,-2.935,-1.75,66.23,0,109.4,13.67,-2.19,132.6
"2010-02-01 00:41:30",1641962,2.75,177.8,5.751,1.096,2.118,99.11624,-2.952,-1.561,66.68,0,109.4,13.67,-2.21,139.8
"2010-02-01 00:42:00",1641963,2.651,181.3,5.846,1.19,2.623,99.11624,-2.952,-1.538,66.92,0,109.4,13.67,-2.21,143.3
"2010-02-01 00:42:30",1641964,2.204,176.3,6.376,1.221,1.12,99.10322,-2.985,-1.677,67.03,0,109.4,13.67,-2.24,138.3
"2010-02-01 00:43:00",1641965,2.362,179.8,8.62,1.157,1.486,99.0865,-3.028,-1.649,67.29,0,109.4,13.67,-2.29,141.8
"2010-02-01 00:43:30",1641966,1.314,182.2,3.974,0.87,0.228,99.0831,-3.036,-1.72,67.42,0,109.4,13.67,-2.29,144.2
"2010-02-01 00:44:00",1641967,2.004,181.4,6.634,1.194,1.076,99.08139,-3.041,-1.841,67.39,0,109.4,13.67,-2.30,143.4
"2010-02-01 00:44:30",1641968,1.75,186.4,6.927,1.158,1.204,99.06578,-3.08,-1.757,67.63,0,109.4,13.68,-2.34,148.4
"2010-02-01 00:45:00",1641969,2.225,188.3,6.739,1.242,1.792,99.06062,-3.094,-1.693,67.77,0,109.4,13.68,-2.35,150.3
"2010-02-01 00:45:30",1641970,2.679,185.8,5.986,1.216,1.707,99.06201,-3.09,-1.764,67.87,0,109.4,13.68,-2.35,147.8
"2010-02-01 00:46:00",1641971,1.888,181.6,5.074,1.034,-0.289,99.06482,-3.083,-1.871,67.89,0,109.4,13.68,-2.34,143.6
"2010-02-01 00:46:30",1641972,2.549,187.3,6.245,1.183,1.583,99.05716,-3.102,-1.741,68.12,0,109.4,13.68,-2.36,149.3
"2010-02-01 00:47:00",1641973,2.559,185.5,5.281,1.16,0.609,99.04948,-3.122,-1.937,68.01,0,109.4,13.68,-2.38,147.5
"2010-02-01 00:47:30",1641974,2.322,190.2,7.104,1.167,1.746,99.04324,-3.138,-1.728,68.31,0,109.4,13.68,-2.40,152.2
"2010-02-01 00:48:00",1641975,2.338,195.7,5.891,1.224,0.976,99.03699,-3.154,-1.91,68.2,0,109.4,13.68,-2.41,157.7
"2010-02-01 00:48:30",1641976,2.884,205.5,6.312,1.174,1.879,99.04008,-3.146,-1.777,68.36,0,109.4,13.68,-2.40,167.5
"2010-02-01 00:49:00",1641977,2.692,207.9,5.989,1.244,1.54,99.04204,-3.141,-1.78,68.47,0,109.4,13.68,-2.40,169.9
"2010-02-01 00:49:30",1641978,2.424,207.8,5.711,1.169,0.211,99.04317,-3.138,-1.952,68.39,0,109.4,13.68,-2.40,169.8
"2010-02-01 00:50:00",1641979,2.619,208.9,6.083,1.217,0.999,99.03806,-3.151,-1.942,68.49,0,109.4,13.67,-2.41,170.9
"2010-02-01 00:50:30",1641980,2.498,208.4,6.007,1.201,1.016,99.02164,-3.193,-1.904,68.65,0,109.4,13.67,-2.45,170.4
"2010-02-01 00:51:00",1641981,2.011,202.2,7.468,1.003,0.327,99.01228,-3.217,-1.952,68.66,0,109.4,13.68,-2.48,164.2
"2010-02-01 00:51:30",1641982,2.958,206.2,6.498,1.187,2.141,99.01001,-3.222,-1.848,68.84,0,109.4,13.67,-2.48,168.2
"2010-02-01 00:52:00",1641983,3.077,208.9,5.875,1.171,2.039,99.0117,-3.218,-1.857,68.92,0,109.4,13.67,-2.48,170.9
"2010-02-01 00:52:30",1641984,1.869,196.6,5.71,0.892,-0.606,99.01337,-3.214,-1.977,68.86,0,109.4,13.67,-2.47,158.6
"2010-02-01 00:53:00",1641985,2.717,198.7,6.198,1.213,1.044,99.01366,-3.213,-2.027,68.86,0,109.4,13.67,-2.47,160.7
"2010-02-01 00:53:30",1641986,2.709,204.4,7.727,1.199,1.258,99.01393,-3.212,-1.937,69.01,0,109.4,13.68,-2.47,166.4
"2010-02-01 00:54:00",1641987,2.841,206.5,6.704,1.182,1.589,99.01393,-3.212,-1.908,69.04,0,109.4,13.68,-2.47,168.5
"2010-02-01 00:54:30",1641988,3.617,208.4,5.511,1.07,2.701,99.01393,-3.212,-1.876,69.08,0,109.4,13.68,-2.47,170.4
"2010-02-01 00:55:00",1641989,3.597,211.3,6.34,1.138,2.046,99.01393,-3.212,-1.94,69.07,0,109.4,13.68,-2.47,173.3
"2010-02-01 00:55:30",1641990,3.344,210.8,6.317,1.151,1.834,99.01393,-3.212,-1.921,69.12,0,109.4,13.68,-2.47,172.8
"2010-02-01 00:56:00",1641991,2.311,205,5.157,0.934,-1.088,99.0128,-3.215,-2.138,69,0,109.4,13.68,-2.47,167.0
"2010-02-01 00:56:30",1641992,3.11,205.7,6.621,1.141,1.926,99.00798,-3.228,-1.899,69.3,0,109.4,13.68,-2.49,167.7
"2010-02-01 00:57:00",1641993,3.602,205.5,7.421,1.086,2.84,99.00175,-3.243,-1.894,69.34,0,109.4,13.68,-2.50,167.5
"2010-02-01 00:57:30",1641994,3.216,195.8,7.9,1.163,1.775,98.99552,-3.259,-2.073,69.24,0,109.4,13.68,-2.52,157.8
"2010-02-01 00:58:00",1641995,3.626,194.5,6.791,1.083,2.637,98.99184,-3.269,-1.904,69.48,0,109.4,13.68,-2.53,156.5
"2010-02-01 00:58:30",1641996,2.664,189.2,6.416,1.075,0.132,98.98929,-3.275,-2.016,69.42,0,109.4,13.68,-2.53,151.2
"2010-02-01 00:59:00",1641997,2.157,198.3,6.298,0.828,-0.73,98.98985,-3.274,-2.098,69.41,0,109.4,13.68,-2.53,160.3
"2010-02-01 00:59:30",1641998,3.719,203.9,6.728,1.076,2.232,98.9856,-3.285,-1.972,69.57,0,109.4,13.68,-2.54,165.9
"2010-02-01 01:00:00",1641999,3.543,207.2,5.404,1.187,2.018,98.98618,-3.283,-1.917,69.65,0,109.4,13.69,-2.54,169.2
"2010-02-01 01:00:30",1642000,4.168,213.1,5.683,0.995,2.506,98.98843,-3.277,-1.937,69.62,0,109.4,13.69,-2.54,175.1
"2010-02-01 01:01:00",1642001,3.726,215.4,7.631,1.121,1.837,98.98475,-3.287,-1.959,69.58,0,109.4,13.69,-2.55,177.4
"2010-02-01 01:01:30",1642002,3.346,217.2,5.324,1.247,0.98,98.9856,-3.285,-2.021,69.5,0,109.4,13.69,-2.54,179.2
"2010-02-01 01:02:00",1642003,2.18,216.5,2.342,0.426,-0.982,98.98559,-3.285,-2.063,69.49,0,109.4,13.69,-2.54,178.5
"2010-02-01 01:02:30",1642004,3.895,223.3,4.655,1.002,2.471,98.98869,-3.277,-1.948,69.63,0,109.4,13.69,-2.54,185.3
"2010-02-01 01:03:00",1642005,3.21,218.8,6.444,1.218,1.857,98.98812,-3.278,-2.004,69.57,0,109.4,13.69,-2.54,180.8
"2010-02-01 01:03:30",1642006,3.346,216.4,6.491,1.266,2.219,98.99179,-3.269,-1.909,69.69,0,109.4,13.69,-2.53,178.4
"2010-02-01 01:04:00",1642007,3.827,218.1,5.713,1.065,2.769,98.99573,-3.259,-1.917,69.68,0,109.4,13.69,-2.52,180.1
"2010-02-01 01:04:30",1642008,2.926,211.6,6.357,1.134,0.606,99.0022,-3.242,-2.058,69.52,0,109.4,13.69,-2.50,173.6
"2010-02-01 01:05:00",1642009,3.191,212.8,6.428,1.232,0.909,99.00359,-3.239,-2.01,69.57,0,109.4,13.69,-2.50,174.8
"2010-02-01 01:05:30",1642010,3.429,214.8,5.986,1.185,1.796,99.00813,-3.227,-1.905,69.69,0,109.4,13.69,-2.49,176.8
"2010-02-01 01:06:00",1642011,3.49,215.1,6.671,1.112,2.203,99.01657,-3.206,-1.894,69.7,0,109.4,13.69,-2.47,177.1
"2010-02-01 01:06:30",1642012,4.002,219.2,4.817,1.079,2.894,99.02135,-3.194,-1.893,69.69,0,109.4,13.68,-2.45,181.2
"2010-02-01 01:07:00",1642013,4.054,219.9,5.838,1.111,2.755,99.02531,-3.183,-1.882,69.68,0,109.4,13.68,-2.44,181.9
"2010-02-01 01:07:30",1642014,3.415,217.3,7.725,1.179,1.251,99.027,-3.179,-1.976,69.59,0,109.4,13.68,-2.44,179.3
"2010-02-01 01:08:00",1642015,2.638,215.9,5.144,1.021,-0.229,99.03266,-3.165,-2.076,69.53,0,109.4,13.68,-2.42,177.9
"2010-02-01 01:08:30",1642016,3.568,218.7,5.306,1.173,2.298,99.03689,-3.154,-1.887,69.68,0,109.4,13.68,-2.41,180.7
"2010-02-01 01:09:00",1642017,2.28,212.7,5.142,0.923,0.743,99.03973,-3.147,-1.929,69.6,0,109.4,13.68,-2.41,174.7
"2010-02-01 01:09:30",1642018,3.326,218.8,4.285,1.138,2.855,99.0403,-3.145,-1.922,69.64,0,109.4,13.68,-2.40,180.8
"2010-02-01 01:10:00",1642019,3.32,225.8,5,1.097,2.613,99.04396,-3.136,-1.857,69.64,0,109.4,13.68,-2.39,187.8
"2010-02-01 01:10:30",1642020,2.236,219.5,6.253,1.089,0.752,99.04565,-3.132,-1.947,69.55,0,109.3,13.68,-2.39,181.5
"2010-02-01 01:11:00",1642021,2.18,224.3,4.794,1.045,-0.071,99.04705,-3.128,-2.059,69.41,0,109.4,13.69,-2.39,186.3
"2010-02-01 01:11:30",1642022,3.239,231.7,7.251,1.151,1.939,99.04565,-3.132,-1.941,69.49,0,109.4,13.69,-2.39,193.7
"2010-02-01 01:12:00",1642023,2.226,228.3,3.276,1.029,-0.019,99.04762,-3.127,-2.054,69.37,0,109.4,13.7,-2.39,190.3
"2010-02-01 01:12:30",1642024,3.383,238.6,4.806,1.211,2.805,99.04705,-3.128,-1.78,69.62,0,109.4,13.7,-2.39,200.6
"2010-02-01 01:13:00",1642025,3.581,234.2,6.409,1.141,2.707,99.04762,-3.127,-1.845,69.55,0,109.3,13.7,-2.39,196.2
"2010-02-01 01:13:30",1642026,3.723,235.9,5.372,1.139,2.017,99.04762,-3.127,-1.87,69.51,0,109.4,13.7,-2.39,197.9
"2010-02-01 01:14:00",1642027,2.491,228.6,4.001,0.933,-0.325,99.04762,-3.127,-1.989,69.39,0,109.4,13.7,-2.39,190.6
"2010-02-01 01:14:30",1642028,3.791,234.8,5.806,1.032,2.151,99.04762,-3.127,-1.916,69.49,0,109.4,13.7,-2.39,196.8
"2010-02-01 01:15:00",1642029,2.045,227,2.463,0.211,-0.08,99.04762,-3.127,-1.97,69.46,0,109.4,13.7,-2.39,189.0
"2010-02-01 01:15:30",1642030,4.204,238.1,3.335,0.668,3.916,99.04762,-3.127,-1.777,69.64,0,109.4,13.7,-2.39,200.1
"2010-02-01 01:16:00",1642031,3.592,235.9,6.813,1.131,2.293,99.04762,-3.127,-1.845,69.6,0,109.4,13.7,-2.39,197.9
"2010-02-01 01:16:30",1642032,3.04,228.9,6.679,1.22,1.166,99.04762,-3.127,-1.929,69.51,0,109.4,13.7,-2.39,190.9
"2010-02-01 01:17:00",1642033,3.217,231.1,6.298,1.222,0.759,99.04762,-3.127,-1.916,69.48,0,109.4,13.7,-2.39,193.1
"2010-02-01 01:17:30",1642034,3.025,230.5,5.94,1.149,0.453,99.04762,-3.127,-1.905,69.45,0,109.3,13.7,-2.39,192.5
"2010-02-01 01:18:00",1642035,3.184,233,5.975,1.206,1.834,99.04762,-3.127,-1.883,69.45,0,109.4,13.7,-2.39,195.0
"2010-02-01 01:18:30",1642036,4.268,238.9,2.728,0.641,3.953,99.04762,-3.127,-1.764,69.57,0,109.4,13.7,-2.39,200.9
"2010-02-01 01:19:00",1642037,3.501,235.4,5.829,1.172,2.607,99.04762,-3.127,-1.813,69.5,0,109.3,13.7,-2.39,197.4
"2010-02-01 01:19:30",1642038,1.94,233.6,4.273,0.595,-0.315,99.04762,-3.127,-1.902,69.39,0,109.4,13.7,-2.39,195.6
"2010-02-01 01:20:00",1642039,2.492,238.9,5.739,1.147,0.552,99.04762,-3.127,-1.976,69.29,0,109.4,13.7,-2.39,200.9
"2010-02-01 01:20:30",1642040,2.226,238.8,6.164,1.077,0.653,99.04762,-3.127,-1.906,69.37,0,109.4,13.7,-2.39,200.8
"2010-02-01 01:21:00",1642041,2.016,241,8.28,1.06,0.474,99.04762,-3.127,-1.879,69.38,0,109.3,13.7,-2.39,203.0
"2010-02-01 01:21:30",1642042,3.659,251.7,4.723,0.927,2.956,99.04762,-3.127,-1.843,69.4,0,109.4,13.7,-2.39,213.7
"2010-02-01 01:22:00",1642043,3.576,249.8,5.822,1.137,2.897,99.04762,-3.127,-1.743,69.49,0,109.3,13.71,-2.39,211.8
"2010-02-01 01:22:30",1642044,3.489,247,6.273,1.038,1.502,99.04762,-3.127,-1.87,69.31,0,109.3,13.7,-2.39,209.0
"2010-02-01 01:23:00",1642045,2.826,239.7,3.838,1.2,0.22,99.0479,-3.126,-1.904,69.24,0,109.3,13.7,-2.38,201.7
"2010-02-01 01:23:30",1642046,2.593,237.6,3.734,0.81,-0.677,99.04762,-3.127,-1.973,69.14,0,109.3,13.7,-2.39,199.6
"2010-02-01 01:24:00",1642047,3.405,239.8,5.988,1.223,1.481,99.04762,-3.127,-1.822,69.26,0,109.3,13.7,-2.39,201.8
"2010-02-01 01:24:30",1642048,3.875,245.6,6.222,1.01,3.217,99.04847,-3.124,-1.732,69.28,0,109.3,13.7,-2.38,207.6
"2010-02-01 01:25:00",1642049,4.1,255.1,5.003,0.729,3.392,99.04819,-3.125,-1.769,69.2,0,109.3,13.7,-2.38,217.1
"2010-02-01 01:25:30",1642050,3.816,257,5.629,1.054,2.492,99.04903,-3.123,-1.828,69.11,0,109.3,13.7,-2.38,219.0
"2010-02-01 01:26:00",1642051,2.424,251.2,5.966,0.917,0.242,99.04819,-3.125,-1.867,69.03,0,109.3,13.7,-2.38,213.2
"2010-02-01 01:26:30",1642052,3.011,252,5.615,1.165,0.325,99.04875,-3.124,-1.987,68.89,0,109.3,13.7,-2.38,214.0
"2010-02-01 01:27:00",1642053,3.056,247,6.595,1.174,0.516,99.04875,-3.124,-1.942,68.92,0,109.3,13.7,-2.38,209.0
"2010-02-01 01:27:30",1642054,4.478,247.7,4.491,0.311,3.542,99.05215,-3.115,-1.741,69.13,0,109.3,13.7,-2.37,209.7
"2010-02-01 01:28:00",1642055,4.372,245.9,3.4,0.685,3.618,99.05555,-3.106,-1.721,69.1,0,109.3,13.71,-2.37,207.9
"2010-02-01 01:28:30",1642056,3.817,242.2,6.222,1.06,2.005,99.05839,-3.099,-1.855,68.94,0,109.3,13.71,-2.36,204.2
"2010-02-01 01:29:00",1642057,2.785,237.2,5.957,1.033,0.436,99.06037,-3.094,-1.862,68.88,0,109.3,13.71,-2.35,199.2
"2010-02-01 01:29:30",1642058,2.532,234.4,4.377,0.971,-0.776,99.06434,-3.084,-1.991,68.74,0,109.3,13.71,-2.34,196.4
"2010-02-01 01:30:00",1642059,2.49,230.9,4.465,0.911,0.302,99.06859,-3.073,-1.883,68.81,0,109.3,13.71,-2.33,192.9
"2010-02-01 01:30:30",1642060,4.17,235,5.261,0.92,3.571,99.07256,-3.063,-1.696,68.99,0,109.3,13.71,-2.32,197.0
"2010-02-01 01:31:00",1642061,4.4,237.2,4.016,0.736,3.472,99.07822,-3.049,-1.695,68.95,0,109.3,13.71,-2.31,199.2
"2010-02-01 01:31:30",1642062,3.633,236.5,5.061,1.132,2.099,99.08078,-3.042,-1.777,68.85,0,109.3,13.71,-2.30,198.5
"2010-02-01 01:32:00",1642063,3.379,239.9,6.449,1.155,0.909,99.08163,-3.04,-1.85,68.76,0,109.3,13.71,-2.30,201.9
"2010-02-01 01:32:30",1642064,2.779,238.8,4.428,0.829,-0.09,99.08276,-3.037,-1.847,68.73,0,109.3,13.71,-2.30,200.8
"2010-02-01 01:33:00",1642065,3.18,242.1,6.127,1.138,1.176,99.08276,-3.037,-1.773,68.75,0,109.3,13.71,-2.30,204.1
"2010-02-01 01:33:30",1642066,4.205,251.1,4.118,0.832,3.431,99.08415,-3.034,-1.716,68.76,0,109.3,13.71,-2.29,213.1
"2010-02-01 01:34:00",1642067,4.373,248.9,4.629,0.667,3.431,99.0864,-3.028,-1.69,68.76,0,109.3,13.71,-2.29,210.9
"2010-02-01 01:34:30",1642068,3.845,244.3,4.497,1.11,2.338,99.08977,-3.019,-1.743,68.64,0,109.3,13.71,-2.28,206.3
"2010-02-01 01:35:00",1642069,2.706,231.2,5.273,0.863,-0.537,99.08894,-3.021,-1.862,68.47,0,109.3,13.71,-2.28,193.2
"2010-02-01 01:35:30",1642070,3.811,233.2,5.962,1.18,1.115,99.08865,-3.022,-1.906,68.39,0,109.3,13.71,-2.28,195.2
"2010-02-01 01:36:00",1642071,4.305,236.5,6.542,1.104,2.277,99.08809,-3.024,-1.792,68.48,0,109.3,13.71,-2.28,198.5
"2010-02-01 01:36:30",1642072,5.075,242.3,4.017,0.664,3.815,99.0909,-3.016,-1.656,68.61,0,109.3,13.71,-2.27,204.3
"2010-02-01 01:37:00",1642073,5.299,244.4,4.262,0.364,3.807,99.09427,-3.008,-1.648,68.6,0,109.3,13.71,-2.27,206.4
"2010-02-01 01:37:30",1642074,4.536,242.6,5.883,1.15,2.074,99.09623,-3.003,-1.859,68.48,0,109.3,13.71,-2.26,204.6
"2010-02-01 01:38:00",1642075,3.941,238.7,5.855,1.125,1.277,99.09765,-2.999,-1.797,68.6,0,109.3,13.72,-2.26,200.7
"2010-02-01 01:38:30",1642076,3.831,239.2,5.879,1.142,0.893,99.09962,-2.994,-1.837,68.67,0,109.3,13.71,-2.25,201.2
"2010-02-01 01:39:00",1642077,4.413,245.5,5.559,1.111,3.155,99.1019,-2.988,-1.7,68.87,0,109.3,13.71,-2.25,207.5
"2010-02-01 01:39:30",1642078,4.813,250.3,4.505,0.85,3.162,99.105,-2.98,-1.655,69.03,0,109.3,13.71,-2.24,212.3
"2010-02-01 01:40:00",1642079,4.437,252.4,5.197,1.067,2.474,99.1084,-2.972,-1.65,69.06,0,109.3,13.7,-2.23,214.4
"2010-02-01 01:40:30",1642080,3.544,250.4,5.316,1.071,0.591,99.11011,-2.967,-1.733,69,0,109.3,13.7,-2.23,212.4
"2010-02-01 01:41:00",1642081,3.864,252.5,5.904,1.108,0.808,99.11208,-2.962,-1.831,68.92,0,109.3,13.7,-2.22,214.5
"2010-02-01 01:41:30",1642082,3.765,248.6,5.58,1.085,0.843,99.11435,-2.957,-1.75,69.05,0,109.3,13.7,-2.22,210.6
"2010-02-01 01:42:00",1642083,5.105,251.8,5.112,1.05,3.162,99.11462,-2.956,-1.643,69.18,0,109.3,13.7,-2.21,213.8
"2010-02-01 01:42:30",1642084,5.467,252.2,3.404,0.662,3.96,99.11321,-2.96,-1.59,69.23,0,109.3,13.71,-2.22,214.2
"2010-02-01 01:43:00",1642085,5.264,249,4.033,0.846,3.152,99.1166,-2.951,-1.616,69.2,0,109.3,13.7,-2.21,211.0
"2010-02-01 01:43:30",1642086,4.324,242.9,6.829,1.188,1.113,99.11974,-2.943,-1.812,68.93,0,109.3,13.71,-2.20,204.9
"2010-02-01 01:44:00",1642087,4.029,237.4,5.953,1.138,1.281,99.12625,-2.926,-1.747,68.88,0,109.3,13.71,-2.18,199.4
"2010-02-01 01:44:30",1642088,4.112,235.1,5.967,1.158,1.475,99.13108,-2.914,-1.772,68.81,0,109.3,13.71,-2.17,197.1
"2010-02-01 01:45:00",1642089,5.085,241.1,4.412,0.851,3.476,99.13306,-2.909,-1.582,68.94,0,109.3,13.71,-2.17,203.1